This is the latest recevied weather packets stored in our database for station/object N8WJW. If no packets are shown the sender has not sent any weather packets the latest 10 day(s).
| Time | Temp. | Humidity | Pressure | Rain* | Wind** | Luminosity | Snow |
|---|---|---|---|---|---|---|---|
| 1777988088 | 16.67° C | 76% | 1007.4 hPa | 0 mm | - | 65 W/m² | - |
| 1777987783 | 16.67° C | 77% | 1007 hPa | 0 mm | - | 77 W/m² | - |
| 1777987480 | 16.67° C | 76% | 1007.2 hPa | 0 mm | - | 96 W/m² | - |
| 1777987178 | 16.67° C | 77% | 1007.3 hPa | 0 mm | - | 109 W/m² | - |
| 1777986874 | 16.11° C | 77% | 1007.5 hPa | 0 mm | - | 99 W/m² | - |
| 1777986572 | 16.11° C | 76% | 1007.3 hPa | 0 mm | - | 86 W/m² | - |
| 1777986270 | 16.11° C | 76% | 1007.2 hPa | 0 mm | - | 86 W/m² | - |
| 1777985967 | 16.11° C | 76% | 1007.4 hPa | 0 mm | - | 81 W/m² | - |
| 1777985665 | 16.11° C | 75% | 1007.2 hPa | 0 mm | - | 70 W/m² | - |
| 1777985361 | 16.11° C | 75% | 1007.4 hPa | 0 mm | - | 61 W/m² | - |
| 1777985058 | 16.11° C | 75% | 1007 hPa | 0 mm | - | 55 W/m² | - |
| 1777984754 | 16.11° C | 75% | 1006.9 hPa | 0 mm | - | 54 W/m² | - |
| 1777984451 | 16.11° C | 74% | 1007 hPa | 0 mm | - | 55 W/m² | - |
| 1777984146 | 16.11° C | 75% | 1006.9 hPa | 0 mm | - | 49 W/m² | - |
| 1777983844 | 16.11° C | 75% | 1006.6 hPa | 0 mm | - | 49 W/m² | - |
| 1777983541 | 16.11° C | 74% | 1006.7 hPa | 0 mm | - | 49 W/m² | - |
| 1777983238 | 16.11° C | 74% | 1006.6 hPa | 0 mm | - | 48 W/m² | - |
| 1777982933 | 16.11° C | 74% | 1006.5 hPa | 0 mm | - | 48 W/m² | - |
| 1777982630 | 16.11° C | 74% | 1006.6 hPa | 0 mm | - | 51 W/m² | - |
| 1777982329 | 16.67° C | 73% | 1006.7 hPa | 0 mm | - | 38 W/m² | - |
| 1777982026 | 16.67° C | 73% | 1006.8 hPa | 0 mm | - | 27 W/m² | - |
| 1777981724 | 16.67° C | 72% | 1006.6 hPa | 0 mm | - | 26 W/m² | - |
| 1777981420 | 16.67° C | 70% | 1006.7 hPa | 0 mm | - | 21 W/m² | - |
| 1777981116 | 17.22° C | 68% | 1006.5 hPa | 0 mm | - | 22 W/m² | - |
| 1777980813 | 17.22° C | 69% | 1006.5 hPa | 0 mm | - | 10 W/m² | - |
* Rain latest hour (hover to see other rain measurements)
** Current wind speed in m/s (hover to see current wind gust speed)